TimeEDT,TemperatureF,Dew PointF,Humidity,Sea Level PressureIn,VisibilityMPH,Wind Direction,Wind SpeedMPH,Gust SpeedMPH,PrecipitationIn,Events,Conditions,WindDirDegrees,DateUTC
12:53 AM,32.0,19.0,59,29.75,10.0,WNW,10.4,17.3,N/A,,Clear,290,2013-03-23 04:53:00
1:53 AM,30.9,18.0,59,29.75,10.0,West,8.1,-,N/A,,Clear,280,2013-03-23 05:53:00
2:53 AM,30.9,18.0,59,29.75,10.0,West,8.1,-,N/A,,Clear,280,2013-03-23 06:53:00
3:53 AM,30.0,19.0,64,29.74,10.0,West,11.5,-,N/A,,Clear,270,2013-03-23 07:53:00
4:53 AM,30.0,19.9,66,29.73,10.0,WNW,5.8,-,N/A,,Clear,290,2013-03-23 08:53:00
5:53 AM,30.0,21.0,69,29.73,10.0,West,10.4,-,N/A,,Clear,260,2013-03-23 09:53:00
6:53 AM,30.0,21.0,69,29.73,10.0,WSW,6.9,-,N/A,,Clear,250,2013-03-23 10:53:00
7:53 AM,33.1,21.9,64,29.72,10.0,West,10.4,-,N/A,,Clear,260,2013-03-23 11:53:00
8:53 AM,36.0,21.9,57,29.71,10.0,West,19.6,31.1,N/A,,Clear,280,2013-03-23 12:53:00
9:53 AM,37.0,19.9,50,29.71,10.0,WNW,20.7,28.8,N/A,,Partly Cloudy,290,2013-03-23 13:53:00
10:53 AM,37.0,18.0,46,29.70,10.0,West,18.4,25.3,0.00,,Overcast,280,2013-03-23 14:53:00
11:53 AM,39.9,18.0,41,29.69,10.0,WNW,19.6,28.8,N/A,,Mostly Cloudy,300,2013-03-23 15:53:00
12:53 PM,39.9,18.0,41,29.68,10.0,WNW,15.0,33.4,N/A,,Mostly Cloudy,290,2013-03-23 16:53:00
1:53 PM,41.0,18.0,40,29.67,10.0,WNW,18.4,27.6,N/A,,Mostly Cloudy,290,2013-03-23 17:53:00
2:53 PM,43.0,17.1,35,29.65,10.0,WNW,20.7,33.4,N/A,,Overcast,290,2013-03-23 18:53:00
3:53 PM,42.1,18.0,38,29.65,10.0,WNW,17.3,28.8,N/A,,Overcast,290,2013-03-23 19:53:00
4:53 PM,43.0,19.0,38,29.66,10.0,WNW,11.5,24.2,N/A,,Overcast,290,2013-03-23 20:53:00
5:53 PM,43.0,19.0,38,29.67,10.0,NW,16.1,24.2,N/A,,Clear,310,2013-03-23 21:53:00
6:53 PM,41.0,17.1,38,29.70,10.0,WNW,16.1,24.2,N/A,,Partly Cloudy,290,2013-03-23 22:53:00
7:53 PM,39.9,17.1,40,29.73,10.0,North,10.4,28.8,N/A,,Clear,360,2013-03-23 23:53:00
8:53 PM,37.9,17.1,43,29.78,10.0,NW,9.2,18.4,N/A,,Clear,310,2013-03-24 00:53:00
9:53 PM,37.9,17.1,43,29.78,10.0,NW,16.1,21.9,N/A,,Partly Cloudy,310,2013-03-24 01:53:00
10:53 PM,37.0,18.0,46,29.80,10.0,WNW,8.1,-,N/A,,Clear,290,2013-03-24 02:53:00
11:53 PM,36.0,18.0,48,29.80,10.0,West,6.9,-,N/A,,Clear,260,2013-03-24 03:53:00